Melbourne, FL

1:16 AM EST on December 12, 2017 (GMT -0500)
Melbourne International

Weather History for KMLB - June, 2013

Change the Weather History Date:

Wednesday, June 26, 2013

  Actual Average Record
Temperature  
Mean Temperature 82 °F 81 °F  
Max Temperature 89 °F 90 °F 100 °F (1950)
Min Temperature 74 °F 72 °F 67 °F (1938)
Degree Days  
Heating Degree Days 0 0  
Month to date heating degree days 0 0  
Since 1 June heating degree days 0 0  
Since 1 July heating degree days 463 577  
Cooling Degree Days 17 16  
Month to date cooling degree days 425 399  
Year to date cooling degree days 1286 1125  
Since 1 June cooling degree days 425 399  
Growing Degree Days 32 (Base 50)    
Moisture  
Dew Point 74 °F    
Average Humidity 77    
Maximum Humidity 94    
Minimum Humidity 59    
Precipitation  
Precipitation 0.01 in 0.22 in 2.15 in (1953)
Month to date precipitation 5.56 5.80  
Year to date precipitation 20.89 19.30  
Sea Level Pressure  
Sea Level Pressure 30.07 in    
Wind  
Wind Speed 5 mph (South)    
Max Wind Speed 17 mph    
Max Gust Speed 25 mph    
Visibility 10 miles    
Events Rain , Thunderstorm    
T = Trace of Precipitation, MM = Missing Value Source: NWS Daily Summary

Daily Weather History Graph

Daily Weather History Graph

Search for Another Location

Airport or City:

Trip Planner

Search our weather history database for the weather conditions in past years. The results will help you decide how hot, cold, wet, or windy it might be!

Date:

Astronomy

Jun. 26, 2013 Rise Set
Actual Time 6:27 AM EDT 8:23 PM EDT
Civil Twilight 6:01 AM EDT 8:49 PM EDT
Nautical Twilight 5:28 AM EDT 9:22 PM EDT
Astronomical Twilight 4:54 AM EDT 9:56 PM EDT
Moon 11:07 PM EDT (6/26) 9:58 AM EDT (6/26)
Length of Visible Light 14h 48m
Length of Day
13h 55m
Waning Gibbous, 85% of the Moon is Illuminated
Jun 26
Waning Gibbous
Jun 30
Last Quarter
Jul 8
New
Jul 15
First Quarter
Jul 22
Full

Hourly Weather History & Observations

Time (EDT) Temp. Heat Index Dew Point Humidity Pressure Visibility Wind Dir Wind Speed Gust Speed Precip Events Conditions
12:53 AM 81.0 °F 86.7 °F 75.0 °F 82% 30.08 in 10.0 mi SE 5.8 mph - N/A   Clear
1:53 AM 81.0 °F 86.7 °F 75.0 °F 82% 30.06 in 10.0 mi SE 5.8 mph - N/A   Clear
2:53 AM 80.1 °F 85.1 °F 75.0 °F 85% 30.04 in 10.0 mi SSE 5.8 mph - N/A   Clear
3:53 AM 79.0 °F - 75.0 °F 88% 30.04 in 10.0 mi South 4.6 mph - N/A   Clear
4:53 AM 78.1 °F - 73.9 °F 87% 30.03 in 10.0 mi SSE 3.5 mph - N/A   Clear
5:53 AM 78.1 °F - 73.9 °F 87% 30.05 in 10.0 mi Calm Calm - N/A   Clear
6:53 AM 78.1 °F - 73.9 °F 87% 30.07 in 10.0 mi Calm Calm - N/A   Partly Cloudy
7:53 AM 81.0 °F 86.7 °F 75.0 °F 82% 30.09 in 7.0 mi South 3.5 mph - N/A   Partly Cloudy
8:53 AM 82.9 °F 90.2 °F 75.0 °F 77% 30.08 in 10.0 mi SSW 6.9 mph - N/A   Scattered Clouds
9:43 AM 84.2 °F 92.3 °F 75.2 °F 74% 30.08 in 10.0 mi South 10.4 mph - N/A   Mostly Cloudy
9:53 AM 84.9 °F 92.1 °F 73.9 °F 69% 30.08 in 10.0 mi South 6.9 mph - N/A   Mostly Cloudy
10:53 AM 88.0 °F 95.6 °F 73.0 °F 61% 30.08 in 10.0 mi Variable 5.8 mph - N/A   Mostly Cloudy
11:53 AM 84.0 °F 92.6 °F 75.9 °F 76% 30.09 in 10.0 mi East 12.7 mph - 0.01 in   Mostly Cloudy
12:53 PM 89.1 °F 98.0 °F 73.9 °F 61% 30.08 in 10.0 mi East 13.8 mph - N/A   Scattered Clouds
1:41 PM 80.6 °F 85.4 °F 73.4 °F 79% 30.10 in 10.0 mi South 6.9 mph - 0.00 in Rain , Thunderstorm Light Thunderstorms and Rain
1:53 PM 79.0 °F - 73.9 °F 84% 30.09 in 10.0 mi South 5.8 mph - 0.00 in Rain , Thunderstorm Light Thunderstorms and Rain
2:14 PM 78.8 °F - 73.4 °F 83% 30.07 in 10.0 mi Calm Calm - 0.00 in Rain , Thunderstorm Light Rain
2:53 PM 81.0 °F 87.3 °F 75.9 °F 85% 30.08 in 10.0 mi Variable 3.5 mph - 0.00 in Rain Light Rain
3:53 PM 82.9 °F 90.2 °F 75.0 °F 77% 30.07 in 10.0 mi SE 10.4 mph - 0.00 in   Scattered Clouds
4:53 PM 82.0 °F 89.4 °F 75.9 °F 82% 30.05 in 10.0 mi SSE 10.4 mph - N/A   Partly Cloudy
5:53 PM 80.1 °F 85.1 °F 75.0 °F 85% 30.06 in 10.0 mi SW 4.6 mph - N/A   Scattered Clouds
6:53 PM 80.1 °F 84.5 °F 73.9 °F 81% 30.06 in 10.0 mi West 4.6 mph - N/A   Scattered Clouds
7:53 PM 78.1 °F - 73.9 °F 87% 30.03 in 10.0 mi SSW 5.8 mph - N/A   Clear
8:53 PM 78.1 °F - 73.0 °F 84% 30.03 in 10.0 mi Calm Calm - N/A   Clear
9:53 PM 78.1 °F - 73.9 °F 87% 30.06 in 10.0 mi SSW 3.5 mph - N/A   Clear
10:53 PM 75.9 °F - 73.0 °F 91% 30.08 in 10.0 mi WNW 3.5 mph - N/A   Clear
11:53 PM 75.9 °F - 73.0 °F 91% 30.06 in 10.0 mi Calm Calm - N/A   Clear